Flag for U.S.A. Weather past 2 weeks in Sterling Heights, Michigan, U.S.A.

Now
54 °F

Mostly cloudy.


Feels Like: 51 °F
Forecast: 53 / 62 °F
Wind: 10 mph from North

Location: Selfridge Air National Guard Base

Current Time: Sep 30, 2014 at 10:44:11 AM

Latest Report: Sep 30, 2014 at 9:55 AM


Visibility: 10 mi

Pressure: 29.95 "Hg

Humidity: 95%

Dew point: 52 °F

Location of Sterling HeightsLocation

Historic Weather in Sterling Heights — Graph

°F

Sterling Heights temperature yesterday

Maximum temperature yesterday: 76 °F (at 1:55 PM)
Minimum temperature yesterday: 51 °F (at 7:55 AM)
Average temperature yesterday: 62 °F

Past Weeks' High & Low Weather Summary

 TemperatureHumidityPressure
High79 °F (Sep 20, 2:55 PM)100% (Sep 19, 1:58 AM)30.46 "Hg (Sep 19, 1:58 AM)
Low38 °F (Sep 19, 5:58 AM)42% (Sep 17, 1:55 PM)29.57 "Hg (Sep 21, 6:04 AM)
Average58 °F82%30.13 "Hg
* Reported Sep 15 9:55 AM — Sep 30 9:01 AM, Sterling Heights, Weather by CustomWeather, © 2014

Note: Actual official high and low records may vary slightly from our data, if they occured in-between our weather recording intervals... More about our weather records

Advertising

Sterling Heights weather history for previous 24 hours

 ConditionsComfort  
Time TempWeatherWind HumidityBarometerVisibility
9:01 AM
Sep 30
54 °FDrizzle. Fog.10 mph94%29.92 "Hg5 mi
7:55 AM53 °FMostly cloudy.10 mph99%29.93 "Hg10 mi
7:01 AM54 °FLight rain. Low clouds.10 mph100%29.90 "Hg10 mi
5:58 AM54 °FLow clouds.10 mph100%29.90 "Hg10 mi
4:58 AM56 °FLow clouds.10 mph100%29.88 "Hg10 mi
4:03 AM57 °FMostly cloudy.6 mph100%29.85 "Hg10 mi
3:58 AM57 °FOvercast.8 mph100%29.85 "Hg10 mi
3:04 AM59 °FHeavy rain. Fog.8 mph100%29.86 "Hg5 mi
2:58 AM58 °FRain. Mostly cloudy.12 mph99%29.87 "Hg8 mi
2:03 AM63 °FRain. Fog.10 mph100%29.86 "Hg5 mi
1:58 AM63 °FRain. Fog.9 mph100%29.85 "Hg3 mi
1:02 AM66 °FLight rain. Passing clouds.6 mph83%29.85 "Hg10 mi
11:58 PM
Sep 29
65 °FOvercast.7 mph81%29.84 "Hg10 mi
10:58 PM64 °FClear.7 mph85%29.86 "Hg10 mi
9:58 PM63 °FClear.7 mph89%29.88 "Hg10 mi
8:58 PM64 °FClear.5 mph99%29.88 "Hg10 mi
7:55 PM66 °FPassing clouds.No wind82%29.89 "Hg10 mi
6:55 PM66 °FPassing clouds.5 mph82%29.90 "Hg10 mi
5:55 PM72 °FPassing clouds.7 mph65%29.91 "Hg10 mi
4:55 PM74 °FPassing clouds.8 mph56%29.90 "Hg10 mi
3:55 PM75 °FPassing clouds.9 mph56%29.92 "Hg10 mi
2:55 PM75 °FPassing clouds.7 mph58%29.94 "Hg10 mi
1:55 PM76 °FPassing clouds.7 mph48%29.97 "Hg10 mi
12:55 PM76 °FPassing clouds.6 mph50%29.99 "Hg10 mi
11:55 AM73 °FPassing clouds.No wind59%30.00 "Hg10 mi
10:55 AM68 °FBroken clouds.No wind75%30.02 "Hg10 mi
Weather by CustomWeather, © 2014

See weather overviewHow to use our weather pages